sat.trackr.live / text

‹ back to catalog

STARLINK-36970

NORAD 68071 · 2026-042C

PAYLOAD ACTIVE UNKNOWN

§ Identity

Operator
Country
US
Launch date
2026-03-04
Launch site
AFETR
Launch vehicle
Mass (kg)
RCS (m²)

Purposes: comms

External: N2YO · Heavens-Above · Gunter

§ Orbital elements

Epoch: 2026-05-25T02:53:16.155168Z

Period
93.85 min
Inclination
53.1593°
Eccentricity
0.0001312
Mean motion
15.34411980 rev/d
Perigee alt
461.8 km
Apogee alt
463.6 km
Semi-major
6,840.8 km
B*
5.1139e-4
RAAN
183.2481°
Arg perigee
85.1365°
Mean anomaly
274.9788°
Rev number
1,401

§ Raw data

STARLINK-369701 68071U 26042C   26145.12032587  .00016948  00000+0  51139-3 0  99912 68071  53.1593 183.2481 0001312  85.1365 274.9788 15.34411980 14019

JSON: /api/v1/satellites/68071 · /tle

For live sub-satellite position, see the globe view (requires WebGL).

§ Visibility from observer

Set your observer location to see the next 7 days of passes ≥ 10°. The values pass through the URL so the page stays shareable.

No JS? Fill the form by hand. The geolocation button needs JavaScript.